Showing default

UM5-RIBAT, 60554

Orbit data source: Space-Track

UM5-RIBAT, 60554 is a Moroccan payload satellite in SSO that was launched on Fri, 16 Aug 2024 UTC via an FALCON 9 launch vehicle from the Air Force Western Test Range (AFWTR). Payload-class satellites include a variety of spacecraft equipped with specific instruments for various scientific and technological missions. These include communications satellites like Starlink; space stations such as the ISS; scientific satellites like the Hubble; Earth observation satellites from companies like Planet Labs, Umbra, and HawkEye 360; GPS; miniature CubeSats for education and research; and military/defense satellites.

Loading next visibility...
Identifier
60554, 2024-149CQ
Orbit
SSO
Country
Flag of MAMA
Related business
Manufacturer
UM5R
Mission
Operational Amateur Technology
Bus & Motor
CUBESAT 3U, Unknown motor
Mass
5 kg wet, 5 kg dry
Launch date (UTC)
2024-08-16 (2 years ago)
Launch vehicle
FALCON 9
Launch site
Air Force Western Test Range (AFWTR)
Object type
Payload
Rocket body
Debris
Shape & HBR
Box, 0.1 m
Radar Cross Section
0.080 m², Small (<0.1 m²)

Expand to show TLE details & history
Last TLE update: 15 hours ago

TLE from 15 hours ago
0 UM5-RIBAT
1 60554U 24149CQ  26133.20620563  .00001623  00000-0  13227-3 0  9999
2 60554  97.6660 211.4782 0003159 116.8833 243.2714 15.00871114 94946
Epoch: 2026-05-13T04:56Z
TLE epoch observation values (Epoch: 2026-05-13T04:56:56.166Z)
Latitude
-0.00004°
Longitude
-93.72538°
Altitude
568.253 km
Speed
7.576 km/s
True Right ascension
14h 05m 54s
True Declination
0° 00' 00"
Sunlit
Object was in full shadow at epoch
Visualization orbit readout
Latitude
Unknown
Longitude
Unknown
Altitude
Unknown
Speed
Unknown
Apparent Right ascension
Unknown
Apparent Declination
Unknown
Sunlit
N/A
Visualization observer readout
Local Sidereal Time
04:01:58
Azimuth
Unknown
Elevation
Unknown
Doppler factor
Unknown
Orbital elements
Apogee altitude
563.404 km
Perigee altitude
559.019 km
Semi-major axis
6,939.348 km
Eccentricity
0.00032
Inclination
97.666°
RAAN
211.4782°
Arg. of periapsis
116.8833°
True anomaly
243.23907°
Mean anomaly
243.2714°
Eccentric anomaly
243.25524°
Mean motion
3.75461 °/min
Orbital period
95.88 mins
BSTAR
0.00013227
Loading maneuver chart data...
Computing Atmospheric mass density...
Loading historical data...
Loading historical data...
Loading historical data...
Loading historical data...
Loading historical data...
Loading historical data...
Loading historical data...

Documentation

Showing up to 5 results
|